Time,TemperatureF,DewpointF,PressureIn,WindDirection,WindDirectionDegrees,WindSpeedMPH,WindSpeedGustMPH,Humidity,HourlyPrecipIn,Conditions,Clouds,dailyrainin,SoftwareType,DateUTC
2013-09-06 00:23:00,84.0,80.0,29.98,NNW,329,4.0,9.0,88,0.00,,,0.00,,2013-09-06 04:23:00,
2013-09-06 00:54:00,84.0,80.0,29.98,North,2,5.0,9.0,87,0.00,,,0.00,,2013-09-06 04:54:00,
2013-09-06 01:23:00,84.0,80.0,29.98,NW,323,4.0,13.0,88,0.01,,,0.01,,2013-09-06 05:23:00,
2013-09-06 01:52:00,83.0,79.0,29.97,NW,321,5.0,18.0,89,0.01,,,0.01,,2013-09-06 05:52:00,
2013-09-06 02:22:00,82.0,78.0,29.96,North,2,11.0,15.0,89,0.00,,,0.01,,2013-09-06 06:22:00,
2013-09-06 02:53:00,83.0,79.0,29.96,North,2,10.0,15.0,89,0.00,,,0.01,,2013-09-06 06:53:00,
2013-09-06 03:12:00,83.0,79.0,29.95,NNW,342,12.0,18.0,89,0.00,,,0.01,,2013-09-06 07:12:00,
2013-09-06 03:23:00,83.0,79.0,29.95,North,2,10.0,15.0,89,0.00,,,0.01,,2013-09-06 07:23:00,
2013-09-06 03:52:00,83.0,79.0,29.94,NNW,344,14.0,19.0,88,0.00,,,0.01,,2013-09-06 07:52:00,
2013-09-06 04:22:00,83.0,78.0,29.94,North,2,10.0,16.0,86,0.00,,,0.01,,2013-09-06 08:22:00,
2013-09-06 04:52:00,83.0,78.0,29.94,NNW,340,11.0,18.0,86,0.00,,,0.01,,2013-09-06 08:52:00,
2013-09-06 05:22:00,83.0,78.0,29.93,North,2,5.0,16.0,86,0.00,,,0.01,,2013-09-06 09:22:00,
2013-09-06 05:54:00,83.0,78.0,29.94,NNW,335,9.0,13.0,86,0.00,,,0.01,,2013-09-06 09:54:00,
2013-09-06 06:23:00,83.0,78.0,29.94,NNW,338,9.0,15.0,86,0.00,,,0.01,,2013-09-06 10:23:00,
2013-09-06 06:53:00,83.0,78.0,29.94,North,2,10.0,15.0,85,0.00,,,0.01,,2013-09-06 10:53:00,
2013-09-06 07:22:00,83.0,78.0,29.95,NNW,335,10.0,16.0,86,0.00,,,0.01,,2013-09-06 11:22:00,
2013-09-06 07:52:00,83.0,78.0,29.96,NNW,342,10.0,15.0,86,0.00,,,0.01,,2013-09-06 11:52:00,
2013-09-06 08:22:00,83.0,79.0,29.96,NNW,342,9.0,14.0,87,0.00,,,0.01,,2013-09-06 12:22:00,
2013-09-06 08:52:00,84.0,79.0,29.97,North,2,8.0,14.0,86,0.00,,,0.01,,2013-09-06 12:52:00,
2013-09-06 09:11:00,84.0,79.0,29.97,North,2,13.0,16.0,85,0.00,,,0.01,,2013-09-06 13:11:00,
2013-09-06 09:22:00,85.0,79.0,29.97,North,2,7.0,15.0,83,0.00,,,0.01,,2013-09-06 13:22:00,
2013-09-06 09:52:00,86.0,79.0,29.98,NNW,332,10.0,14.0,80,0.00,,,0.01,,2013-09-06 13:52:00,
2013-09-06 10:22:00,88.0,81.0,29.98,NNW,347,9.0,13.0,79,0.00,,,0.01,,2013-09-06 14:22:00,
2013-09-06 10:52:00,89.0,81.0,29.98,NW,319,9.0,13.0,78,0.00,,,0.01,,2013-09-06 14:52:00,
2013-09-06 11:22:00,89.0,81.0,29.99,NNW,342,10.0,15.0,78,0.00,,,0.01,,2013-09-06 15:22:00,
2013-09-06 11:53:00,89.0,81.0,29.99,NNW,331,10.0,14.0,77,0.00,,,0.01,,2013-09-06 15:53:00,
2013-09-06 12:24:00,89.0,81.0,29.99,North,2,7.0,12.0,77,0.00,,,0.01,,2013-09-06 16:24:00,
2013-09-06 12:53:00,89.0,80.0,29.98,NNW,346,6.0,12.0,75,0.00,,,0.01,,2013-09-06 16:53:00,
2013-09-06 13:24:00,89.0,80.0,29.97,North,2,6.0,11.0,76,0.00,,,0.01,,2013-09-06 17:24:00,
2013-09-06 13:53:00,89.0,81.0,29.96,NNW,340,6.0,10.0,77,0.00,,,0.01,,2013-09-06 17:53:00,
2013-09-06 14:12:00,89.0,81.0,29.96,North,2,2.0,10.0,77,0.00,,,0.01,,2013-09-06 18:12:00,
2013-09-06 14:22:00,89.0,80.0,29.96,NNW,341,3.0,10.0,76,0.00,,,0.01,,2013-09-06 18:22:00,
2013-09-06 14:52:00,88.0,80.0,29.95,North,2,5.0,12.0,77,0.00,,,0.01,,2013-09-06 18:52:00,
2013-09-06 15:22:00,88.0,80.0,29.93,NNW,333,3.0,10.0,78,0.00,,,0.01,,2013-09-06 19:22:00,
2013-09-06 15:52:00,88.0,79.0,29.92,North,2,1.0,12.0,76,0.00,,,0.01,,2013-09-06 19:52:00,
2013-09-06 16:23:00,88.0,80.0,29.91,NW,320,6.0,13.0,77,0.00,,,0.01,,2013-09-06 20:23:00,
2013-09-06 16:52:00,87.0,79.0,29.90,North,2,7.0,12.0,78,0.00,,,0.01,,2013-09-06 20:52:00,
2013-09-06 17:22:00,87.0,79.0,29.89,NNW,331,7.0,12.0,78,0.00,,,0.01,,2013-09-06 21:22:00,
2013-09-06 17:54:00,86.0,78.0,29.88,NNW,335,10.0,13.0,78,0.00,,,0.01,,2013-09-06 21:54:00,
2013-09-06 18:23:00,86.0,78.0,29.88,NW,306,8.0,14.0,78,0.00,,,0.01,,2013-09-06 22:23:00,
2013-09-06 18:54:00,86.0,79.0,29.89,North,2,8.0,11.0,81,0.00,,,0.01,,2013-09-06 22:54:00,
2013-09-06 19:23:00,86.0,79.0,29.91,NNW,342,7.0,9.0,81,0.00,,,0.01,,2013-09-06 23:23:00,
2013-09-06 19:52:00,85.0,79.0,29.91,North,2,8.0,11.0,82,0.00,,,0.01,,2013-09-06 23:52:00,
2013-09-06 20:22:00,84.0,78.0,29.91,NNW,344,6.0,14.0,82,0.00,,,0.01,,2013-09-07 00:22:00,
2013-09-06 20:42:00,84.0,78.0,29.91,NNW,347,6.0,12.0,82,0.00,,,0.01,,2013-09-07 00:42:00,
2013-09-06 20:52:00,84.0,78.0,29.92,NNW,338,10.0,14.0,83,0.00,,,0.01,,2013-09-07 00:52:00,
2013-09-06 21:12:00,84.0,78.0,29.93,North,2,8.0,12.0,83,0.00,,,0.01,,2013-09-07 01:12:00,
2013-09-06 21:22:00,84.0,78.0,29.93,North,2,10.0,14.0,82,0.00,,,0.01,,2013-09-07 01:22:00,
2013-09-06 21:54:00,84.0,79.0,29.92,NNW,342,9.0,15.0,84,0.00,,,0.01,,2013-09-07 01:54:00,
2013-09-06 22:23:00,83.0,77.0,29.93,NNW,340,6.0,13.0,82,0.00,,,0.01,,2013-09-07 02:23:00,
2013-09-06 22:42:00,83.0,77.0,29.93,NNW,342,6.0,12.0,81,0.00,,,0.01,,2013-09-07 02:42:00,
2013-09-06 22:52:00,84.0,79.0,29.94,North,2,4.0,12.0,85,0.00,,,0.01,,2013-09-07 02:52:00,
2013-09-06 23:23:00,84.0,79.0,29.96,NW,316,6.0,9.0,85,0.00,,,0.01,,2013-09-07 03:23:00,
2013-09-06 23:55:00,84.0,79.0,29.95,NNW,329,11.0,15.0,84,0.00,,,0.01,,2013-09-07 03:55:00,